Time,TemperatureF,DewpointF,PressureIn,WindDirection,WindDirectionDegrees,WindSpeedMPH,WindSpeedGustMPH,Humidity,HourlyPrecipIn,Conditions,Clouds,dailyrainin,SoftwareType,DateUTC
2013-02-02 00:02:00,9.0,5.1,30.37,SSW,203,1.0,-999.0,84,0.00,,,0.00,Wunderground v.1.15,2013-02-02 05:02:00,
2013-02-02 00:07:00,9.0,5.1,30.37,SSW,203,1.0,-999.0,84,0.00,,,0.00,Wunderground v.1.15,2013-02-02 05:07:00,
2013-02-02 00:12:00,9.0,5.1,30.37,SSW,203,1.0,-999.0,84,0.00,,,0.00,Wunderground v.1.15,2013-02-02 05:12:00,
2013-02-02 00:17:00,9.0,5.1,30.37,SSW,203,1.0,-999.0,84,0.00,,,0.00,Wunderground v.1.15,2013-02-02 05:17:00,
2013-02-02 00:22:00,9.0,5.1,30.37,SSW,203,1.0,-999.0,84,0.00,,,0.00,Wunderground v.1.15,2013-02-02 05:22:00,
2013-02-02 00:27:00,9.0,5.1,30.37,SSW,203,1.0,-999.0,84,0.00,,,0.00,Wunderground v.1.15,2013-02-02 05:27:00,
2013-02-02 00:32:00,9.0,5.1,30.37,SSW,203,1.0,-999.0,84,0.00,,,0.00,Wunderground v.1.15,2013-02-02 05:32:00,
2013-02-02 00:37:00,9.0,5.1,30.37,SSW,203,1.0,-999.0,84,0.00,,,0.00,Wunderground v.1.15,2013-02-02 05:37:00,
2013-02-02 00:42:00,9.0,5.1,30.37,SSW,203,1.0,-999.0,84,0.00,,,0.00,Wunderground v.1.15,2013-02-02 05:42:00,
2013-02-02 00:47:00,9.1,5.0,30.36,SSW,203,1.0,-999.0,83,0.00,,,0.00,Wunderground v.1.15,2013-02-02 05:47:00,
2013-02-02 00:52:00,9.1,5.0,30.36,SSW,203,1.0,-999.0,83,0.00,,,0.00,Wunderground v.1.15,2013-02-02 05:52:00,
2013-02-02 00:57:00,9.1,5.0,30.36,SSW,203,1.0,-999.0,83,0.00,,,0.00,Wunderground v.1.15,2013-02-02 05:57:00,
2013-02-02 01:02:00,9.1,5.0,30.36,SSW,203,1.0,-999.0,83,0.00,,,0.00,Wunderground v.1.15,2013-02-02 06:02:00,
2013-02-02 01:07:00,9.1,5.0,30.36,SSW,203,1.0,-999.0,83,0.00,,,0.00,Wunderground v.1.15,2013-02-02 06:07:00,
2013-02-02 01:12:00,9.1,5.0,30.36,SSW,203,1.0,-999.0,83,0.00,,,0.00,Wunderground v.1.15,2013-02-02 06:12:00,
2013-02-02 01:17:00,10.2,5.8,30.35,SSW,203,2.0,-999.0,82,0.00,,,0.00,Wunderground v.1.15,2013-02-02 06:17:00,
2013-02-02 01:22:00,10.2,5.8,30.35,SSW,203,2.0,-999.0,82,0.00,,,0.00,Wunderground v.1.15,2013-02-02 06:22:00,
2013-02-02 01:27:00,10.2,5.8,30.35,SSW,203,2.0,-999.0,82,0.00,,,0.00,Wunderground v.1.15,2013-02-02 06:27:00,
2013-02-02 01:32:00,10.2,5.8,30.35,SSW,203,2.0,-999.0,82,0.00,,,0.00,Wunderground v.1.15,2013-02-02 06:32:00,
2013-02-02 01:37:00,10.2,5.8,30.35,SSW,203,2.0,-999.0,82,0.00,,,0.00,Wunderground v.1.15,2013-02-02 06:37:00,
2013-02-02 01:42:00,10.2,5.8,30.35,SSW,203,2.0,-999.0,82,0.00,,,0.00,Wunderground v.1.15,2013-02-02 06:42:00,
2013-02-02 01:47:00,10.4,6.0,30.34,SSW,203,2.0,-999.0,82,0.00,,,0.00,Wunderground v.1.15,2013-02-02 06:47:00,
2013-02-02 01:52:00,10.4,6.0,30.34,SSW,203,2.0,-999.0,82,0.00,,,0.00,Wunderground v.1.15,2013-02-02 06:52:00,
2013-02-02 01:57:00,10.4,6.0,30.34,SSW,203,2.0,-999.0,82,0.00,,,0.00,Wunderground v.1.15,2013-02-02 06:57:00,
2013-02-02 02:02:00,10.4,6.0,30.34,SSW,203,2.0,-999.0,82,0.00,,,0.00,Wunderground v.1.15,2013-02-02 07:02:00,
2013-02-02 02:07:00,10.4,6.0,30.34,SSW,203,2.0,-999.0,82,0.00,,,0.00,Wunderground v.1.15,2013-02-02 07:07:00,
2013-02-02 02:12:00,10.4,6.0,30.34,SSW,203,2.0,-999.0,82,0.00,,,0.00,Wunderground v.1.15,2013-02-02 07:12:00,
2013-02-02 02:17:00,10.2,6.3,30.33,SSE,158,1.0,-999.0,84,0.00,,,0.00,Wunderground v.1.15,2013-02-02 07:17:00,
2013-02-02 02:22:00,10.2,6.3,30.33,SSE,158,1.0,-999.0,84,0.00,,,0.00,Wunderground v.1.15,2013-02-02 07:22:00,
2013-02-02 02:27:00,10.2,6.3,30.33,SSE,158,1.0,-999.0,84,0.00,,,0.00,Wunderground v.1.15,2013-02-02 07:27:00,
2013-02-02 02:32:00,10.2,6.3,30.33,SSE,158,1.0,-999.0,84,0.00,,,0.00,Wunderground v.1.15,2013-02-02 07:32:00,
2013-02-02 02:37:00,10.2,6.3,30.33,SSE,158,1.0,-999.0,84,0.00,,,0.00,Wunderground v.1.15,2013-02-02 07:37:00,
2013-02-02 02:42:00,10.2,6.3,30.33,SSE,158,1.0,-999.0,84,0.00,,,0.00,Wunderground v.1.15,2013-02-02 07:42:00,
2013-02-02 02:47:00,11.1,7.2,30.33,SSE,158,1.0,-999.0,84,0.00,,,0.00,Wunderground v.1.15,2013-02-02 07:47:00,
2013-02-02 02:52:00,11.1,7.2,30.33,SSE,158,1.0,-999.0,84,0.00,,,0.00,Wunderground v.1.15,2013-02-02 07:52:00,
2013-02-02 02:57:00,11.1,7.2,30.33,SSE,158,1.0,-999.0,84,0.00,,,0.00,Wunderground v.1.15,2013-02-02 07:57:00,
2013-02-02 03:02:00,11.1,7.2,30.33,SSE,158,1.0,-999.0,84,0.00,,,0.00,Wunderground v.1.15,2013-02-02 08:02:00,
2013-02-02 03:07:00,11.1,7.2,30.33,SSE,158,1.0,-999.0,84,0.00,,,0.00,Wunderground v.1.15,2013-02-02 08:07:00,
2013-02-02 03:12:00,11.1,7.2,30.33,SSE,158,1.0,-999.0,84,0.00,,,0.00,Wunderground v.1.15,2013-02-02 08:12:00,
2013-02-02 03:17:00,11.8,7.6,30.32,SSW,203,2.0,-999.0,83,0.00,,,0.00,Wunderground v.1.15,2013-02-02 08:17:00,
2013-02-02 03:22:00,11.8,7.6,30.32,SSW,203,2.0,-999.0,83,0.00,,,0.00,Wunderground v.1.15,2013-02-02 08:22:00,
2013-02-02 03:27:00,11.8,7.6,30.32,SSW,203,2.0,-999.0,83,0.00,,,0.00,Wunderground v.1.15,2013-02-02 08:27:00,
2013-02-02 03:32:00,11.8,7.6,30.32,SSW,203,2.0,-999.0,83,0.00,,,0.00,Wunderground v.1.15,2013-02-02 08:32:00,
2013-02-02 03:37:00,11.8,7.6,30.32,SSW,203,2.0,-999.0,83,0.00,,,0.00,Wunderground v.1.15,2013-02-02 08:37:00,
2013-02-02 03:42:00,11.8,7.6,30.32,SSW,203,2.0,-999.0,83,0.00,,,0.00,Wunderground v.1.15,2013-02-02 08:42:00,
2013-02-02 03:47:00,12.5,8.0,30.31,SSW,203,3.0,-999.0,82,0.00,,,0.00,Wunderground v.1.15,2013-02-02 08:47:00,
2013-02-02 03:52:00,12.5,8.0,30.31,SSW,203,3.0,-999.0,82,0.00,,,0.00,Wunderground v.1.15,2013-02-02 08:52:00,
2013-02-02 03:57:00,12.5,8.0,30.31,SSW,203,3.0,-999.0,82,0.00,,,0.00,Wunderground v.1.15,2013-02-02 08:57:00,
2013-02-02 04:02:00,12.5,8.0,30.31,SSW,203,3.0,-999.0,82,0.00,,,0.00,Wunderground v.1.15,2013-02-02 09:02:00,
2013-02-02 04:07:00,12.5,8.0,30.31,SSW,203,3.0,-999.0,82,0.00,,,0.00,Wunderground v.1.15,2013-02-02 09:07:00,
2013-02-02 04:12:00,12.5,8.0,30.31,SSW,203,3.0,-999.0,82,0.00,,,0.00,Wunderground v.1.15,2013-02-02 09:12:00,
2013-02-02 04:17:00,12.9,8.2,30.30,SSW,203,4.0,-999.0,81,0.00,,,0.00,Wunderground v.1.15,2013-02-02 09:17:00,
2013-02-02 04:22:00,12.9,8.2,30.30,SSW,203,4.0,-999.0,81,0.00,,,0.00,Wunderground v.1.15,2013-02-02 09:22:00,
2013-02-02 04:27:00,12.9,8.2,30.30,SSW,203,4.0,-999.0,81,0.00,,,0.00,Wunderground v.1.15,2013-02-02 09:27:00,
2013-02-02 04:32:00,12.9,8.2,30.30,SSW,203,4.0,-999.0,81,0.00,,,0.00,Wunderground v.1.15,2013-02-02 09:32:00,
2013-02-02 04:37:00,12.9,8.2,30.30,SSW,203,4.0,-999.0,81,0.00,,,0.00,Wunderground v.1.15,2013-02-02 09:37:00,
2013-02-02 04:42:00,12.9,8.2,30.30,SSW,203,4.0,-999.0,81,0.00,,,0.00,Wunderground v.1.15,2013-02-02 09:42:00,
2013-02-02 04:47:00,13.4,8.7,30.30,SSW,203,3.0,-999.0,81,0.00,,,0.00,Wunderground v.1.15,2013-02-02 09:47:00,
2013-02-02 04:52:00,13.4,8.7,30.30,SSW,203,3.0,-999.0,81,0.00,,,0.00,Wunderground v.1.15,2013-02-02 09:52:00,
2013-02-02 04:57:00,13.4,8.7,30.30,SSW,203,3.0,-999.0,81,0.00,,,0.00,Wunderground v.1.15,2013-02-02 09:57:00,
2013-02-02 05:02:00,13.4,8.7,30.30,SSW,203,3.0,-999.0,81,0.00,,,0.00,Wunderground v.1.15,2013-02-02 10:02:00,
2013-02-02 05:07:00,13.4,8.7,30.30,SSW,203,3.0,-999.0,81,0.00,,,0.00,Wunderground v.1.15,2013-02-02 10:07:00,
2013-02-02 05:12:00,13.4,8.7,30.30,SSW,203,3.0,-999.0,81,0.00,,,0.00,Wunderground v.1.15,2013-02-02 10:12:00,
2013-02-02 05:17:00,13.8,8.8,30.30,SSW,203,4.0,-999.0,80,0.00,,,0.00,Wunderground v.1.15,2013-02-02 10:17:00,
2013-02-02 05:22:00,13.8,8.8,30.30,SSW,203,4.0,-999.0,80,0.00,,,0.00,Wunderground v.1.15,2013-02-02 10:22:00,
2013-02-02 05:27:00,13.8,8.8,30.30,SSW,203,4.0,-999.0,80,0.00,,,0.00,Wunderground v.1.15,2013-02-02 10:27:00,
2013-02-02 05:32:00,13.8,8.8,30.30,SSW,203,4.0,-999.0,80,0.00,,,0.00,Wunderground v.1.15,2013-02-02 10:32:00,
2013-02-02 05:37:00,13.8,8.8,30.30,SSW,203,4.0,-999.0,80,0.00,,,0.00,Wunderground v.1.15,2013-02-02 10:37:00,
2013-02-02 05:42:00,13.8,8.8,30.30,SSW,203,4.0,-999.0,80,0.00,,,0.00,Wunderground v.1.15,2013-02-02 10:42:00,
2013-02-02 05:47:00,14.0,9.0,30.28,SW,225,5.0,-999.0,80,0.00,,,0.00,Wunderground v.1.15,2013-02-02 10:47:00,
2013-02-02 05:52:00,14.0,9.0,30.28,SW,225,5.0,-999.0,80,0.00,,,0.00,Wunderground v.1.15,2013-02-02 10:52:00,
2013-02-02 05:57:00,14.0,9.0,30.28,SW,225,5.0,-999.0,80,0.00,,,0.00,Wunderground v.1.15,2013-02-02 10:57:00,
2013-02-02 06:02:00,14.0,9.0,30.28,SW,225,5.0,-999.0,80,0.00,,,0.00,Wunderground v.1.15,2013-02-02 11:02:00,
2013-02-02 06:07:00,14.0,9.0,30.28,SW,225,5.0,-999.0,80,0.00,,,0.00,Wunderground v.1.15,2013-02-02 11:07:00,
2013-02-02 06:12:00,14.0,9.0,30.28,SW,225,5.0,-999.0,80,0.00,,,0.00,Wunderground v.1.15,2013-02-02 11:12:00,
2013-02-02 06:17:00,14.3,9.0,30.27,SSW,203,4.0,-999.0,79,0.00,,,0.00,Wunderground v.1.15,2013-02-02 11:17:00,
2013-02-02 06:22:00,14.3,9.0,30.27,SSW,203,4.0,-999.0,79,0.00,,,0.00,Wunderground v.1.15,2013-02-02 11:22:00,
2013-02-02 06:27:00,14.3,9.0,30.27,SSW,203,4.0,-999.0,79,0.00,,,0.00,Wunderground v.1.15,2013-02-02 11:27:00,
2013-02-02 06:32:00,14.3,9.0,30.27,SSW,203,4.0,-999.0,79,0.00,,,0.00,Wunderground v.1.15,2013-02-02 11:32:00,
2013-02-02 06:37:00,14.3,9.0,30.27,SSW,203,4.0,-999.0,79,0.00,,,0.00,Wunderground v.1.15,2013-02-02 11:37:00,
2013-02-02 06:42:00,14.3,9.0,30.27,SSW,203,4.0,-999.0,79,0.00,,,0.00,Wunderground v.1.15,2013-02-02 11:42:00,
2013-02-02 06:47:00,14.5,10.3,30.27,SSW,203,4.0,-999.0,83,0.00,,,0.00,Wunderground v.1.15,2013-02-02 11:47:00,
2013-02-02 06:52:00,14.5,10.3,30.27,SSW,203,4.0,-999.0,83,0.00,,,0.00,Wunderground v.1.15,2013-02-02 11:52:00,
2013-02-02 06:57:00,14.5,10.3,30.27,SSW,203,4.0,-999.0,83,0.00,,,0.00,Wunderground v.1.15,2013-02-02 11:57:00,
2013-02-02 07:02:00,14.5,10.3,30.27,SSW,203,4.0,-999.0,83,0.00,,,0.00,Wunderground v.1.15,2013-02-02 12:02:00,
2013-02-02 07:07:00,14.5,10.3,30.27,SSW,203,4.0,-999.0,83,0.00,,,0.00,Wunderground v.1.15,2013-02-02 12:07:00,
2013-02-02 07:12:00,14.5,10.3,30.27,SSW,203,4.0,-999.0,83,0.00,,,0.00,Wunderground v.1.15,2013-02-02 12:12:00,
2013-02-02 07:17:00,14.8,10.8,30.26,SSW,203,6.0,-999.0,84,0.00,,,0.00,Wunderground v.1.15,2013-02-02 12:17:00,
2013-02-02 07:22:00,14.8,10.8,30.26,SSW,203,6.0,-999.0,84,0.00,,,0.00,Wunderground v.1.15,2013-02-02 12:22:00,
2013-02-02 07:27:00,14.8,10.8,30.26,SSW,203,6.0,-999.0,84,0.00,,,0.00,Wunderground v.1.15,2013-02-02 12:27:00,
2013-02-02 07:32:00,14.8,10.8,30.26,SSW,203,6.0,-999.0,84,0.00,,,0.00,Wunderground v.1.15,2013-02-02 12:32:00,
2013-02-02 07:37:00,14.8,10.8,30.26,SSW,203,6.0,-999.0,84,0.00,,,0.00,Wunderground v.1.15,2013-02-02 12:37:00,
2013-02-02 07:42:00,14.8,10.8,30.26,SSW,203,6.0,-999.0,84,0.00,,,0.00,Wunderground v.1.15,2013-02-02 12:42:00,
2013-02-02 07:47:00,15.2,11.8,30.23,SSW,203,5.0,-999.0,86,0.00,,,0.00,Wunderground v.1.15,2013-02-02 12:47:00,
2013-02-02 07:52:00,15.2,11.8,30.23,SSW,203,5.0,-999.0,86,0.00,,,0.00,Wunderground v.1.15,2013-02-02 12:52:00,
2013-02-02 07:57:00,15.2,11.8,30.23,SSW,203,5.0,-999.0,86,0.00,,,0.00,Wunderground v.1.15,2013-02-02 12:57:00,
2013-02-02 08:02:00,15.2,11.8,30.23,SSW,203,5.0,-999.0,86,0.00,,,0.00,Wunderground v.1.15,2013-02-02 13:02:00,
2013-02-02 08:07:00,15.2,11.8,30.23,SSW,203,5.0,-999.0,86,0.00,,,0.00,Wunderground v.1.15,2013-02-02 13:07:00,
2013-02-02 08:12:00,15.2,11.8,30.23,SSW,203,5.0,-999.0,86,0.00,,,0.00,Wunderground v.1.15,2013-02-02 13:12:00,
2013-02-02 08:17:00,15.7,12.8,30.22,SSW,203,6.0,-999.0,88,0.00,,,0.00,Wunderground v.1.15,2013-02-02 13:17:00,
2013-02-02 08:22:00,15.7,12.8,30.22,SSW,203,6.0,-999.0,88,0.00,,,0.00,Wunderground v.1.15,2013-02-02 13:22:00,
2013-02-02 08:27:00,15.7,12.8,30.22,SSW,203,6.0,-999.0,88,0.00,,,0.00,Wunderground v.1.15,2013-02-02 13:27:00,
2013-02-02 08:32:00,15.7,12.8,30.22,SSW,203,6.0,-999.0,88,0.00,,,0.00,Wunderground v.1.15,2013-02-02 13:32:00,
2013-02-02 08:35:00,15.7,12.8,30.22,South,183,6.0,6.0,88,0.00,,,0.00,Wunderground v.1.15,2013-02-02 13:35:00,
2013-02-02 08:37:00,15.7,12.8,30.22,SSW,203,6.0,-999.0,88,0.00,,,0.00,Wunderground v.1.15,2013-02-02 13:37:00,
2013-02-02 08:40:00,15.7,13.0,30.22,SSW,200,7.0,7.0,89,0.00,,,0.00,Wunderground v.1.15,2013-02-02 13:40:00,
2013-02-02 08:42:00,15.7,12.8,30.22,SSW,203,6.0,-999.0,88,0.00,,,0.00,Wunderground v.1.15,2013-02-02 13:42:00,
2013-02-02 08:44:00,15.7,13.0,30.22,SSW,202,7.0,7.0,89,0.00,,,0.00,Wunderground v.1.15,2013-02-02 13:44:00,
2013-02-02 08:47:00,15.8,13.1,30.21,SSW,203,7.0,-999.0,89,0.00,,,0.00,Wunderground v.1.15,2013-02-02 13:47:00,
2013-02-02 08:50:00,15.7,13.0,30.21,SSW,206,7.0,7.0,89,0.00,,,0.00,Wunderground v.1.15,2013-02-02 13:50:00,
2013-02-02 08:52:00,15.8,13.1,30.21,SSW,203,7.0,-999.0,89,0.00,,,0.00,Wunderground v.1.15,2013-02-02 13:52:00,
2013-02-02 08:55:00,15.7,13.0,30.21,SW,218,7.0,7.0,89,0.00,,,0.00,Wunderground v.1.15,2013-02-02 13:55:00,
2013-02-02 08:57:00,15.8,13.1,30.21,SSW,203,7.0,-999.0,89,0.00,,,0.00,Wunderground v.1.15,2013-02-02 13:57:00,
2013-02-02 09:02:00,15.8,13.1,30.21,SSW,203,7.0,-999.0,89,0.00,,,0.00,Wunderground v.1.15,2013-02-02 14:02:00,
2013-02-02 09:05:00,15.9,13.2,30.20,SSW,209,7.0,8.0,89,0.00,,,0.00,Wunderground v.1.15,2013-02-02 14:05:00,
2013-02-02 09:07:00,15.8,13.1,30.21,SSW,203,7.0,-999.0,89,0.00,,,0.00,Wunderground v.1.15,2013-02-02 14:07:00,
2013-02-02 09:10:00,15.9,13.2,30.20,SSW,192,8.0,8.0,89,0.00,,,0.00,Wunderground v.1.15,2013-02-02 14:10:00,
2013-02-02 09:12:00,15.8,13.1,30.21,SSW,203,7.0,-999.0,89,0.00,,,0.00,Wunderground v.1.15,2013-02-02 14:12:00,
2013-02-02 09:15:00,16.1,13.4,30.20,SW,222,8.0,11.0,89,0.00,,,0.00,Wunderground v.1.15,2013-02-02 14:15:00,
2013-02-02 09:17:00,16.6,13.9,30.19,SSW,203,8.0,-999.0,89,0.00,,,0.00,Wunderground v.1.15,2013-02-02 14:17:00,
2013-02-02 09:20:00,16.2,13.5,30.20,SW,215,8.0,8.0,89,0.00,,,0.00,Wunderground v.1.15,2013-02-02 14:20:00,
2013-02-02 09:22:00,16.6,13.9,30.19,SSW,203,8.0,-999.0,89,0.00,,,0.00,Wunderground v.1.15,2013-02-02 14:22:00,
2013-02-02 09:25:00,16.4,13.7,30.20,SSW,195,7.0,8.0,89,0.00,,,0.00,Wunderground v.1.15,2013-02-02 14:25:00,
2013-02-02 09:27:00,16.6,13.9,30.19,SSW,203,8.0,-999.0,89,0.00,,,0.00,Wunderground v.1.15,2013-02-02 14:27:00,
2013-02-02 09:32:00,16.6,13.9,30.19,SSW,203,8.0,-999.0,89,0.00,,,0.00,Wunderground v.1.15,2013-02-02 14:32:00,
2013-02-02 09:35:00,16.8,14.1,30.19,SE,140,7.0,7.0,89,0.00,,,0.00,Wunderground v.1.15,2013-02-02 14:35:00,
2013-02-02 09:37:00,16.6,13.9,30.19,SSW,203,8.0,-999.0,89,0.00,,,0.00,Wunderground v.1.15,2013-02-02 14:37:00,
2013-02-02 09:42:00,16.6,13.9,30.19,SSW,203,8.0,-999.0,89,0.00,,,0.00,Wunderground v.1.15,2013-02-02 14:42:00,
2013-02-02 09:45:00,17.1,14.2,30.18,South,188,8.0,13.0,88,0.00,,,0.00,Wunderground v.1.15,2013-02-02 14:45:00,
2013-02-02 09:47:00,17.7,14.8,30.17,SSW,203,8.0,-999.0,88,0.00,,,0.00,Wunderground v.1.15,2013-02-02 14:47:00,
2013-02-02 09:50:00,17.1,14.2,30.17,SSW,202,9.0,9.0,88,0.00,,,0.00,Wunderground v.1.15,2013-02-02 14:50:00,
2013-02-02 09:52:00,17.7,14.8,30.17,SSW,203,8.0,-999.0,88,0.00,,,0.00,Wunderground v.1.15,2013-02-02 14:52:00,
2013-02-02 09:55:00,17.4,14.7,30.17,SE,145,7.0,9.0,89,0.00,,,0.00,Wunderground v.1.15,2013-02-02 14:55:00,
2013-02-02 09:57:00,17.7,14.8,30.17,SSW,203,8.0,-999.0,88,0.00,,,0.00,Wunderground v.1.15,2013-02-02 14:57:00,
2013-02-02 10:00:00,17.7,14.8,30.17,South,187,7.0,7.0,88,0.00,,,0.00,Wunderground v.1.15,2013-02-02 15:00:00,
2013-02-02 10:02:00,17.7,14.8,30.17,SSW,203,8.0,-999.0,88,0.00,,,0.00,Wunderground v.1.15,2013-02-02 15:02:00,
2013-02-02 10:07:00,17.7,14.8,30.17,SSW,203,8.0,-999.0,88,0.00,,,0.00,Wunderground v.1.15,2013-02-02 15:07:00,
2013-02-02 10:10:00,18.0,14.8,30.16,SSE,165,8.0,8.0,87,0.00,,,0.00,Wunderground v.1.15,2013-02-02 15:10:00,
2013-02-02 10:12:00,17.7,14.8,30.17,SSW,203,8.0,-999.0,88,0.00,,,0.00,Wunderground v.1.15,2013-02-02 15:12:00,
2013-02-02 10:15:00,18.1,15.1,30.16,SSW,202,8.0,12.0,88,0.00,,,0.00,Wunderground v.1.15,2013-02-02 15:15:00,
2013-02-02 10:17:00,18.5,15.5,30.15,SSW,203,8.0,-999.0,88,0.00,,,0.00,Wunderground v.1.15,2013-02-02 15:17:00,
2013-02-02 10:22:00,18.5,15.5,30.15,SSW,203,8.0,-999.0,88,0.00,,,0.00,Wunderground v.1.15,2013-02-02 15:22:00,
2013-02-02 10:25:00,18.4,15.4,30.15,South,187,8.0,8.0,88,0.00,,,0.00,Wunderground v.1.15,2013-02-02 15:25:00,
2013-02-02 10:27:00,18.5,15.5,30.15,SSW,203,8.0,-999.0,88,0.00,,,0.00,Wunderground v.1.15,2013-02-02 15:27:00,
2013-02-02 10:30:00,18.5,15.5,30.15,SSW,198,8.0,9.0,88,0.00,,,0.00,Wunderground v.1.15,2013-02-02 15:30:00,
2013-02-02 10:39:00,18.7,15.7,30.15,SSW,202,8.0,8.0,88,0.00,,,0.00,Wunderground v.1.15,2013-02-02 15:39:00,
2013-02-02 10:45:00,18.8,16.1,30.15,SW,234,7.0,8.0,89,0.00,,,0.00,Wunderground v.1.15,2013-02-02 15:45:00,
2013-02-02 10:50:00,19.0,16.3,30.16,SSW,202,7.0,7.0,89,0.00,,,0.00,Wunderground v.1.15,2013-02-02 15:50:00,
2013-02-02 10:55:00,19.2,16.5,30.16,SW,218,6.0,7.0,89,0.00,,,0.00,Wunderground v.1.15,2013-02-02 15:55:00,
2013-02-02 11:04:00,19.4,16.4,30.15,South,184,7.0,7.0,88,0.00,,,0.00,Wunderground v.1.15,2013-02-02 16:04:00,
2013-02-02 11:10:00,19.6,16.6,30.15,SSW,213,8.0,8.0,88,0.00,,,0.00,Wunderground v.1.15,2013-02-02 16:10:00,
2013-02-02 11:15:00,19.7,17.0,30.15,South,184,7.0,8.0,89,0.00,,,0.00,Wunderground v.1.15,2013-02-02 16:15:00,
2013-02-02 11:25:00,19.9,16.9,30.14,South,191,7.0,7.0,88,0.00,,,0.00,Wunderground v.1.15,2013-02-02 16:25:00,
2013-02-02 11:30:00,20.0,17.3,30.14,SSW,202,7.0,7.0,89,0.00,,,0.00,Wunderground v.1.15,2013-02-02 16:30:00,
2013-02-02 11:35:00,20.2,17.2,30.14,SSW,213,7.0,7.0,88,0.00,,,0.00,Wunderground v.1.15,2013-02-02 16:35:00,
2013-02-02 11:40:00,20.4,17.4,30.13,SW,215,6.0,11.0,88,0.00,,,0.00,Wunderground v.1.15,2013-02-02 16:40:00,
2013-02-02 11:50:00,20.6,17.3,30.13,SSW,211,8.0,8.0,87,0.00,,,0.00,Wunderground v.1.15,2013-02-02 16:50:00,
2013-02-02 11:55:00,20.8,17.3,30.13,SSW,211,8.0,8.0,86,0.00,,,0.00,Wunderground v.1.15,2013-02-02 16:55:00,
2013-02-02 12:00:00,21.0,17.5,30.12,SSW,203,7.0,-999.0,86,0.00,,,0.00,Wunderground v.1.15,2013-02-02 17:00:00,
2013-02-02 12:05:00,21.2,17.9,30.12,SW,218,8.0,9.0,87,0.00,,,0.00,Wunderground v.1.15,2013-02-02 17:05:00,
2013-02-02 12:10:00,21.5,18.2,30.12,SSW,200,7.0,7.0,87,0.00,,,0.00,Wunderground v.1.15,2013-02-02 17:10:00,
2013-02-02 12:15:00,21.4,18.1,30.11,SW,236,7.0,8.0,87,0.00,,,0.00,Wunderground v.1.15,2013-02-02 17:15:00,
2013-02-02 12:20:00,21.4,18.1,30.11,SW,221,8.0,8.0,87,0.00,,,0.00,Wunderground v.1.15,2013-02-02 17:20:00,
2013-02-02 12:25:00,21.4,18.1,30.10,SW,225,7.0,-999.0,87,0.00,,,0.00,Wunderground v.1.15,2013-02-02 17:25:00,
2013-02-02 12:30:00,21.4,18.1,30.10,SW,229,7.0,9.0,87,0.00,,,0.00,Wunderground v.1.15,2013-02-02 17:30:00,
2013-02-02 12:35:00,21.5,18.2,30.10,SW,230,7.0,10.0,87,0.00,,,0.00,Wunderground v.1.15,2013-02-02 17:35:00,
2013-02-02 12:40:00,21.7,18.4,30.09,South,187,7.0,7.0,87,0.00,,,0.00,Wunderground v.1.15,2013-02-02 17:40:00,
2013-02-02 12:45:00,21.9,18.6,30.09,SSW,213,7.0,7.0,87,0.00,,,0.00,Wunderground v.1.15,2013-02-02 17:45:00,
2013-02-02 12:50:00,22.1,18.8,30.09,South,187,7.0,7.0,87,0.00,,,0.00,Wunderground v.1.15,2013-02-02 17:50:00,
2013-02-02 12:55:00,22.4,19.1,30.08,SSW,203,7.0,-999.0,87,0.00,,,0.00,Wunderground v.1.15,2013-02-02 17:55:00,
2013-02-02 13:00:00,22.4,19.1,30.08,SW,221,8.0,8.0,87,0.00,,,0.00,Wunderground v.1.15,2013-02-02 18:00:00,
2013-02-02 13:05:00,22.4,19.1,30.08,SSW,203,7.0,-999.0,87,0.00,,,0.00,Wunderground v.1.15,2013-02-02 18:05:00,
2013-02-02 13:10:00,22.9,19.6,30.07,SSW,202,6.0,6.0,87,0.00,,,0.00,Wunderground v.1.15,2013-02-02 18:10:00,
2013-02-02 13:15:00,23.1,19.8,30.07,SSW,206,6.0,6.0,87,0.00,,,0.00,Wunderground v.1.15,2013-02-02 18:15:00,
2013-02-02 13:20:00,23.0,19.4,30.06,SSW,203,7.0,-999.0,86,0.00,,,0.00,Wunderground v.1.15,2013-02-02 18:20:00,
2013-02-02 13:25:00,23.0,19.4,30.06,SSW,203,7.0,-999.0,86,0.00,,,0.00,Wunderground v.1.15,2013-02-02 18:25:00,
2013-02-02 13:30:00,23.0,19.4,30.06,SSW,203,7.0,-999.0,86,0.00,,,0.00,Wunderground v.1.15,2013-02-02 18:30:00,
2013-02-02 13:35:00,23.0,19.4,30.06,SSW,203,7.0,-999.0,86,0.00,,,0.00,Wunderground v.1.15,2013-02-02 18:35:00,
2013-02-02 13:40:00,23.0,19.4,30.06,SSW,203,7.0,-999.0,86,0.00,,,0.00,Wunderground v.1.15,2013-02-02 18:40:00,
2013-02-02 13:45:00,23.5,20.2,30.05,SW,225,6.0,-999.0,87,0.00,,,0.00,Wunderground v.1.15,2013-02-02 18:45:00,
2013-02-02 13:50:00,23.5,20.2,30.05,SW,225,6.0,-999.0,87,0.00,,,0.00,Wunderground v.1.15,2013-02-02 18:50:00,
2013-02-02 13:55:00,23.5,20.2,30.05,SW,225,6.0,-999.0,87,0.00,,,0.00,Wunderground v.1.15,2013-02-02 18:55:00,
2013-02-02 14:00:00,23.5,20.2,30.05,SW,225,6.0,-999.0,87,0.00,,,0.00,Wunderground v.1.15,2013-02-02 19:00:00,
2013-02-02 14:05:00,23.5,20.2,30.05,SW,225,6.0,-999.0,87,0.00,,,0.00,Wunderground v.1.15,2013-02-02 19:05:00,
2013-02-02 14:10:00,23.5,20.2,30.05,SW,225,6.0,-999.0,87,0.00,,,0.00,Wunderground v.1.15,2013-02-02 19:10:00,
2013-02-02 14:15:00,25.0,21.7,30.03,SSW,203,5.0,-999.0,87,0.00,,,0.00,Wunderground v.1.15,2013-02-02 19:15:00,
2013-02-02 14:20:00,25.0,21.7,30.03,SSW,203,5.0,-999.0,87,0.00,,,0.00,Wunderground v.1.15,2013-02-02 19:20:00,
2013-02-02 14:25:00,25.0,21.7,30.03,SSW,203,5.0,-999.0,87,0.00,,,0.00,Wunderground v.1.15,2013-02-02 19:25:00,
2013-02-02 14:30:00,25.0,21.7,30.03,SSW,203,5.0,-999.0,87,0.00,,,0.00,Wunderground v.1.15,2013-02-02 19:30:00,
2013-02-02 14:35:00,25.0,21.7,30.03,SSW,203,5.0,-999.0,87,0.00,,,0.00,Wunderground v.1.15,2013-02-02 19:35:00,
2013-02-02 14:40:00,25.0,21.7,30.03,SSW,203,5.0,-999.0,87,0.00,,,0.00,Wunderground v.1.15,2013-02-02 19:40:00,
2013-02-02 14:45:00,25.4,22.1,30.03,SW,225,7.0,-999.0,87,0.00,,,0.00,Wunderground v.1.15,2013-02-02 19:45:00,
2013-02-02 14:50:00,25.4,22.1,30.03,SW,225,7.0,-999.0,87,0.00,,,0.00,Wunderground v.1.15,2013-02-02 19:50:00,
2013-02-02 14:55:00,25.4,22.1,30.03,SW,225,7.0,-999.0,87,0.00,,,0.00,Wunderground v.1.15,2013-02-02 19:55:00,
2013-02-02 15:00:00,25.4,22.1,30.03,SW,225,7.0,-999.0,87,0.00,,,0.00,Wunderground v.1.15,2013-02-02 20:00:00,
2013-02-02 15:05:00,25.4,22.1,30.03,SW,225,7.0,-999.0,87,0.00,,,0.00,Wunderground v.1.15,2013-02-02 20:05:00,
2013-02-02 15:10:00,25.4,22.1,30.03,SW,225,7.0,-999.0,87,0.00,,,0.00,Wunderground v.1.15,2013-02-02 20:10:00,
2013-02-02 15:15:00,25.5,22.2,30.03,SW,225,6.0,-999.0,87,0.00,,,0.00,Wunderground v.1.15,2013-02-02 20:15:00,
2013-02-02 15:20:00,25.5,22.2,30.03,SW,225,6.0,-999.0,87,0.00,,,0.00,Wunderground v.1.15,2013-02-02 20:20:00,
2013-02-02 15:25:00,25.5,22.2,30.03,SW,225,6.0,-999.0,87,0.00,,,0.00,Wunderground v.1.15,2013-02-02 20:25:00,
2013-02-02 15:30:00,25.5,22.2,30.03,SW,225,6.0,-999.0,87,0.00,,,0.00,Wunderground v.1.15,2013-02-02 20:30:00,
2013-02-02 15:35:00,25.5,22.2,30.03,SW,225,6.0,-999.0,87,0.00,,,0.00,Wunderground v.1.15,2013-02-02 20:35:00,
2013-02-02 15:40:00,25.5,22.2,30.03,SW,225,6.0,-999.0,87,0.00,,,0.00,Wunderground v.1.15,2013-02-02 20:40:00,
2013-02-02 15:45:00,25.5,22.2,30.03,SW,225,4.0,-999.0,87,0.00,,,0.00,Wunderground v.1.15,2013-02-02 20:45:00,
2013-02-02 15:50:00,25.5,22.2,30.03,SW,225,4.0,-999.0,87,0.00,,,0.00,Wunderground v.1.15,2013-02-02 20:50:00,
2013-02-02 15:55:00,25.5,22.2,30.03,SW,225,4.0,-999.0,87,0.00,,,0.00,Wunderground v.1.15,2013-02-02 20:55:00,
2013-02-02 15:59:00,25.5,22.2,30.03,WSW,250,5.0,12.0,87,0.00,,,0.00,Wunderground v.1.15,2013-02-02 20:59:00,
2013-02-02 16:00:00,25.5,22.2,30.03,SW,225,4.0,-999.0,87,0.00,,,0.00,Wunderground v.1.15,2013-02-02 21:00:00,
2013-02-02 16:04:00,25.5,22.2,30.03,SW,219,5.0,12.0,87,0.00,,,0.00,Wunderground v.1.15,2013-02-02 21:04:00,
2013-02-02 16:05:00,25.5,22.2,30.03,SW,225,4.0,-999.0,87,0.00,,,0.00,Wunderground v.1.15,2013-02-02 21:05:00,
2013-02-02 16:10:00,25.5,22.2,30.03,WSW,241,6.0,6.0,87,0.00,,,0.00,Wunderground v.1.15,2013-02-02 21:10:00,
2013-02-02 16:15:00,25.6,22.3,30.03,SW,229,5.0,6.0,87,0.00,,,0.00,Wunderground v.1.15,2013-02-02 21:15:00,
2013-02-02 16:20:00,25.6,22.5,30.03,SW,225,5.0,-999.0,88,0.00,,,0.00,Wunderground v.1.15,2013-02-02 21:20:00,
2013-02-02 16:25:00,25.5,22.4,30.03,SW,215,4.0,5.0,88,0.00,,,0.00,Wunderground v.1.15,2013-02-02 21:25:00,
2013-02-02 16:30:00,25.6,22.5,30.03,SW,225,5.0,-999.0,88,0.00,,,0.00,Wunderground v.1.15,2013-02-02 21:30:00,
2013-02-02 16:35:00,25.6,22.5,30.03,WSW,240,4.0,6.0,88,0.00,,,0.00,Wunderground v.1.15,2013-02-02 21:35:00,
2013-02-02 16:40:00,25.5,22.4,30.03,SSW,213,5.0,5.0,88,0.00,,,0.00,Wunderground v.1.15,2013-02-02 21:40:00,
2013-02-02 16:45:00,25.5,22.7,30.03,SW,225,4.0,-999.0,89,0.00,,,0.00,Wunderground v.1.15,2013-02-02 21:45:00,
2013-02-02 16:50:00,25.5,22.7,30.03,WSW,244,5.0,6.0,89,0.00,,,0.00,Wunderground v.1.15,2013-02-02 21:50:00,
2013-02-02 16:55:00,25.5,22.7,30.03,WSW,249,4.0,6.0,89,0.00,,,0.00,Wunderground v.1.15,2013-02-02 21:55:00,
2013-02-02 17:00:00,25.5,22.7,30.03,SW,225,4.0,-999.0,89,0.00,,,0.00,Wunderground v.1.15,2013-02-02 22:00:00,
2013-02-02 17:04:00,25.5,23.0,30.03,SW,227,3.0,5.0,90,0.00,,,0.00,Wunderground v.1.15,2013-02-02 22:04:00,
2013-02-02 17:05:00,25.5,22.7,30.03,SW,225,4.0,-999.0,89,0.00,,,0.00,Wunderground v.1.15,2013-02-02 22:05:00,
2013-02-02 17:10:00,25.5,23.0,30.03,WSW,240,3.0,5.0,90,0.00,,,0.00,Wunderground v.1.15,2013-02-02 22:10:00,
2013-02-02 17:15:00,25.5,23.0,30.03,WSW,245,3.0,5.0,90,0.00,,,0.00,Wunderground v.1.15,2013-02-02 22:15:00,
2013-02-02 17:20:00,25.4,22.9,30.03,WSW,241,3.0,4.0,90,0.00,,,0.00,Wunderground v.1.15,2013-02-02 22:20:00,
2013-02-02 17:25:00,25.4,23.1,30.03,SW,234,3.0,4.0,91,0.00,,,0.00,Wunderground v.1.15,2013-02-02 22:25:00,
2013-02-02 17:30:00,25.4,23.1,30.03,SW,225,3.0,-999.0,91,0.00,,,0.00,Wunderground v.1.15,2013-02-02 22:30:00,
2013-02-02 17:35:00,25.3,23.0,30.03,SW,215,2.0,2.0,91,0.00,,,0.00,Wunderground v.1.15,2013-02-02 22:35:00,
2013-02-02 17:40:00,25.3,23.3,30.03,WSW,240,2.0,2.0,92,0.00,,,0.00,Wunderground v.1.15,2013-02-02 22:40:00,
2013-02-02 17:45:00,25.3,23.3,30.03,SSW,211,2.0,2.0,92,0.00,,,0.00,Wunderground v.1.15,2013-02-02 22:45:00,
2013-02-02 17:50:00,25.3,23.6,30.03,SW,225,2.0,-999.0,93,0.00,,,0.00,Wunderground v.1.15,2013-02-02 22:50:00,
2013-02-02 17:55:00,25.3,23.6,30.03,SW,219,1.0,2.0,93,0.00,,,0.00,Wunderground v.1.15,2013-02-02 22:55:00,
2013-02-02 18:00:00,25.3,23.6,30.04,SW,227,1.0,1.0,93,0.00,,,0.00,Wunderground v.1.15,2013-02-02 23:00:00,
2013-02-02 18:05:00,25.3,23.6,30.03,SW,236,2.0,2.0,93,0.00,,,0.00,Wunderground v.1.15,2013-02-02 23:05:00,
2013-02-02 18:10:00,25.3,23.6,30.04,West,259,2.0,3.0,93,0.00,,,0.00,Wunderground v.1.15,2013-02-02 23:10:00,
2013-02-02 18:15:00,25.3,23.8,30.04,SW,225,2.0,3.0,94,0.00,,,0.00,Wunderground v.1.15,2013-02-02 23:15:00,
2013-02-02 18:20:00,25.3,23.8,30.04,WSW,248,2.0,-999.0,94,0.00,,,0.00,Wunderground v.1.15,2013-02-02 23:20:00,
2013-02-02 18:25:00,25.3,23.8,30.04,SW,234,2.0,3.0,94,0.00,,,0.00,Wunderground v.1.15,2013-02-02 23:25:00,
2013-02-02 18:30:00,25.3,23.8,30.04,WNW,288,3.0,3.0,94,0.00,,,0.00,Wunderground v.1.15,2013-02-02 23:30:00,
2013-02-02 18:35:00,25.3,23.8,30.04,West,268,3.0,3.0,94,0.00,,,0.00,Wunderground v.1.15,2013-02-02 23:35:00,
2013-02-02 18:40:00,25.2,23.5,30.04,West,259,3.0,3.0,93,0.00,,,0.00,Wunderground v.1.15,2013-02-02 23:40:00,
2013-02-02 18:45:00,25.1,23.4,30.04,WSW,248,3.0,-999.0,93,0.00,,,0.00,Wunderground v.1.15,2013-02-02 23:45:00,
2013-02-02 18:50:00,25.2,23.5,30.04,SW,236,3.0,3.0,93,0.00,,,0.00,Wunderground v.1.15,2013-02-02 23:50:00,
2013-02-02 18:55:00,25.1,23.4,30.04,West,280,3.0,3.0,93,0.00,,,0.00,Wunderground v.1.15,2013-02-02 23:55:00,
2013-02-02 19:00:00,25.1,23.4,30.04,WSW,251,3.0,4.0,93,0.00,,,0.00,Wunderground v.1.15,2013-02-03 00:00:00,
2013-02-02 19:05:00,25.1,23.4,30.04,WSW,248,3.0,-999.0,93,0.00,,,0.00,Wunderground v.1.15,2013-02-03 00:05:00,
2013-02-02 19:10:00,25.1,23.1,30.04,SW,232,2.0,2.0,92,0.00,,,0.00,Wunderground v.1.15,2013-02-03 00:10:00,
2013-02-02 19:15:00,25.0,22.7,30.04,WSW,248,2.0,-999.0,91,0.00,,,0.00,Wunderground v.1.15,2013-02-03 00:15:00,
2013-02-02 19:20:00,25.1,23.1,30.04,WSW,240,2.0,2.0,92,0.00,,,0.00,Wunderground v.1.15,2013-02-03 00:20:00,
2013-02-02 19:25:00,25.0,22.7,30.04,WSW,254,2.0,3.0,91,0.00,,,0.00,Wunderground v.1.15,2013-02-03 00:25:00,
2013-02-02 19:30:00,25.0,22.7,30.04,SW,225,2.0,2.0,91,0.00,,,0.00,Wunderground v.1.15,2013-02-03 00:30:00,
2013-02-02 19:35:00,25.0,22.7,30.04,WSW,248,2.0,-999.0,91,0.00,,,0.00,Wunderground v.1.15,2013-02-03 00:35:00,
2013-02-02 19:40:00,25.0,22.7,30.04,WSW,238,2.0,2.0,91,0.00,,,0.00,Wunderground v.1.15,2013-02-03 00:40:00,
2013-02-02 19:45:00,25.0,22.7,30.05,WSW,257,2.0,2.0,91,0.00,,,0.00,Wunderground v.1.15,2013-02-03 00:45:00,
2013-02-02 19:50:00,25.0,22.7,30.05,WSW,240,2.0,2.0,91,0.00,,,0.00,Wunderground v.1.15,2013-02-03 00:50:00,
2013-02-02 19:55:00,25.0,22.5,30.04,West,264,2.0,2.0,90,0.00,,,0.00,Wunderground v.1.15,2013-02-03 00:55:00,
2013-02-02 20:00:00,25.0,22.5,30.04,WSW,248,2.0,-999.0,90,0.00,,,0.00,Wunderground v.1.15,2013-02-03 01:00:00,
2013-02-02 20:04:00,25.0,22.5,30.04,WSW,242,2.0,2.0,90,0.00,,,0.00,Wunderground v.1.15,2013-02-03 01:04:00,
2013-02-02 20:05:00,25.0,22.5,30.04,WSW,248,2.0,-999.0,90,0.00,,,0.00,Wunderground v.1.15,2013-02-03 01:05:00,
2013-02-02 20:10:00,25.0,22.5,30.04,WSW,248,2.0,-999.0,90,0.00,,,0.00,Wunderground v.1.15,2013-02-03 01:10:00,
2013-02-02 20:15:00,25.0,22.7,30.04,WSW,248,1.0,-999.0,91,0.00,,,0.00,Wunderground v.1.15,2013-02-03 01:15:00,
2013-02-02 20:20:00,25.0,22.7,30.04,WSW,248,1.0,-999.0,91,0.00,,,0.00,Wunderground v.1.15,2013-02-03 01:20:00,
2013-02-02 20:25:00,25.0,22.7,30.04,WSW,248,1.0,-999.0,91,0.00,,,0.00,Wunderground v.1.15,2013-02-03 01:25:00,
2013-02-02 20:30:00,25.0,22.7,30.04,WSW,248,1.0,-999.0,91,0.00,,,0.00,Wunderground v.1.15,2013-02-03 01:30:00,
2013-02-02 20:35:00,25.0,22.7,30.04,WSW,248,1.0,-999.0,91,0.00,,,0.00,Wunderground v.1.15,2013-02-03 01:35:00,
2013-02-02 20:40:00,25.0,22.7,30.04,WSW,248,1.0,-999.0,91,0.00,,,0.00,Wunderground v.1.15,2013-02-03 01:40:00,
2013-02-02 20:45:00,25.1,22.8,30.04,SW,225,2.0,-999.0,91,0.00,,,0.00,Wunderground v.1.15,2013-02-03 01:45:00,
2013-02-02 20:50:00,25.1,22.8,30.04,SW,225,2.0,-999.0,91,0.00,,,0.00,Wunderground v.1.15,2013-02-03 01:50:00,
2013-02-02 20:55:00,25.1,22.8,30.04,SW,225,2.0,-999.0,91,0.00,,,0.00,Wunderground v.1.15,2013-02-03 01:55:00,
2013-02-02 21:00:00,25.1,22.8,30.04,SW,225,2.0,-999.0,91,0.00,,,0.00,Wunderground v.1.15,2013-02-03 02:00:00,
2013-02-02 21:05:00,25.1,22.8,30.04,SW,225,2.0,-999.0,91,0.00,,,0.00,Wunderground v.1.15,2013-02-03 02:05:00,
2013-02-02 21:10:00,25.1,22.8,30.04,SW,225,2.0,-999.0,91,0.00,,,0.00,Wunderground v.1.15,2013-02-03 02:10:00,
2013-02-02 21:15:00,25.1,23.1,30.04,WSW,248,1.0,-999.0,92,0.00,,,0.00,Wunderground v.1.15,2013-02-03 02:15:00,
2013-02-02 21:20:00,25.1,23.1,30.04,WSW,248,1.0,-999.0,92,0.00,,,0.00,Wunderground v.1.15,2013-02-03 02:20:00,
2013-02-02 21:25:00,25.1,23.1,30.04,WSW,248,1.0,-999.0,92,0.00,,,0.00,Wunderground v.1.15,2013-02-03 02:25:00,
2013-02-02 21:30:00,25.1,23.1,30.04,WSW,248,1.0,-999.0,92,0.00,,,0.00,Wunderground v.1.15,2013-02-03 02:30:00,
2013-02-02 21:35:00,25.1,23.1,30.04,WSW,248,1.0,-999.0,92,0.00,,,0.00,Wunderground v.1.15,2013-02-03 02:35:00,
2013-02-02 21:40:00,25.1,23.1,30.04,WSW,248,1.0,-999.0,92,0.00,,,0.00,Wunderground v.1.15,2013-02-03 02:40:00,
2013-02-02 21:45:00,25.3,23.3,30.04,SW,225,2.0,-999.0,92,0.00,,,0.00,Wunderground v.1.15,2013-02-03 02:45:00,
2013-02-02 21:50:00,25.3,23.3,30.04,SW,225,2.0,-999.0,92,0.00,,,0.00,Wunderground v.1.15,2013-02-03 02:50:00,
2013-02-02 21:55:00,25.3,23.3,30.04,SW,225,2.0,-999.0,92,0.00,,,0.00,Wunderground v.1.15,2013-02-03 02:55:00,
2013-02-02 22:00:00,25.3,23.3,30.04,SW,225,2.0,-999.0,92,0.00,,,0.00,Wunderground v.1.15,2013-02-03 03:00:00,
2013-02-02 22:05:00,25.3,23.3,30.04,SW,225,2.0,-999.0,92,0.00,,,0.00,Wunderground v.1.15,2013-02-03 03:05:00,
2013-02-02 22:10:00,25.3,23.3,30.04,SW,225,2.0,-999.0,92,0.00,,,0.00,Wunderground v.1.15,2013-02-03 03:10:00,
2013-02-02 22:15:00,25.2,23.2,30.04,WSW,248,2.0,-999.0,92,0.00,,,0.00,Wunderground v.1.15,2013-02-03 03:15:00,
2013-02-02 22:20:00,25.2,23.2,30.04,WSW,248,2.0,-999.0,92,0.00,,,0.00,Wunderground v.1.15,2013-02-03 03:20:00,
2013-02-02 22:25:00,25.2,23.2,30.04,WSW,248,2.0,-999.0,92,0.00,,,0.00,Wunderground v.1.15,2013-02-03 03:25:00,
2013-02-02 22:30:00,25.2,23.2,30.04,SW,230,2.0,3.0,92,0.00,,,0.00,Wunderground v.1.15,2013-02-03 03:30:00,
2013-02-02 22:35:00,25.2,23.2,30.04,WSW,250,2.0,3.0,92,0.00,,,0.00,Wunderground v.1.15,2013-02-03 03:35:00,
2013-02-02 22:40:00,25.2,23.2,30.04,WSW,248,2.0,-999.0,92,0.00,,,0.00,Wunderground v.1.15,2013-02-03 03:40:00,
2013-02-02 22:45:00,25.2,23.2,30.03,SW,222,2.0,3.0,92,0.00,,,0.00,Wunderground v.1.15,2013-02-03 03:45:00,
2013-02-02 22:50:00,25.1,23.1,30.03,WSW,253,2.0,2.0,92,0.00,,,0.00,Wunderground v.1.15,2013-02-03 03:50:00,
2013-02-02 22:55:00,25.1,23.1,30.03,SW,236,2.0,4.0,92,0.00,,,0.00,Wunderground v.1.15,2013-02-03 03:55:00,
2013-02-02 23:00:00,25.1,23.4,30.04,SW,225,2.0,-999.0,93,0.00,,,0.00,Wunderground v.1.15,2013-02-03 04:00:00,
2013-02-02 23:04:00,25.1,23.1,30.03,WSW,237,2.0,2.0,92,0.00,,,0.00,Wunderground v.1.15,2013-02-03 04:04:00,
2013-02-02 23:05:00,25.1,23.4,30.04,SW,225,2.0,-999.0,93,0.00,,,0.00,Wunderground v.1.15,2013-02-03 04:05:00,
2013-02-02 23:10:00,25.0,23.0,30.03,WSW,255,2.0,2.0,92,0.00,,,0.00,Wunderground v.1.15,2013-02-03 04:10:00,
2013-02-02 23:15:00,24.9,22.9,30.03,WSW,248,2.0,-999.0,92,0.00,,,0.00,Wunderground v.1.15,2013-02-03 04:15:00,
2013-02-02 23:20:00,24.9,22.9,30.03,WSW,248,2.0,-999.0,92,0.00,,,0.00,Wunderground v.1.15,2013-02-03 04:20:00,
2013-02-02 23:25:00,24.9,22.9,30.03,WSW,248,2.0,-999.0,92,0.00,,,0.00,Wunderground v.1.15,2013-02-03 04:25:00,
2013-02-02 23:30:00,24.9,22.9,30.03,WSW,248,2.0,-999.0,92,0.00,,,0.00,Wunderground v.1.15,2013-02-03 04:30:00,
2013-02-02 23:35:00,24.9,22.9,30.03,WSW,248,2.0,-999.0,92,0.00,,,0.00,Wunderground v.1.15,2013-02-03 04:35:00,
2013-02-02 23:40:00,24.9,22.9,30.03,WSW,248,2.0,-999.0,92,0.00,,,0.00,Wunderground v.1.15,2013-02-03 04:40:00,
2013-02-02 23:45:00,24.7,22.7,30.03,West,270,1.0,-999.0,92,0.00,,,0.00,Wunderground v.1.15,2013-02-03 04:45:00,
2013-02-02 23:50:00,24.7,22.7,30.03,West,270,1.0,-999.0,92,0.00,,,0.00,Wunderground v.1.15,2013-02-03 04:50:00,
2013-02-02 23:55:00,24.7,22.7,30.03,West,270,1.0,-999.0,92,0.00,,,0.00,Wunderground v.1.15,2013-02-03 04:55:00,